Flight Track Log - Related Links

Times and Time Zones

All times are in EDT time to prevent confusion due to time zone crossing. See the N8847A flight status page for this flight to view local times or setup timezone preferences in your user account.

Time Position Orientation Groundspeed Altitude Reporting Facility
EDT Latitude Longitude Course Direction KTS MPH feet Rate Location/Type
Thu 05:09:44 PM 41.0703 -85.0886 39° Northeast 222 255 6,200  Level Chicago Center
Thu 05:13:16 PM 41.3033 -84.8403 40° Northeast 333 383 11,000 1,059 Climbing Cleveland Center
Thu 05:14:16 PM 41.3794 -84.7539 48° Northeast 351 404 11,000  Level Cleveland Center
Thu 05:15:16 PM 41.4456 -84.6556 51° Northeast 351 404 11,000  Level Cleveland Center
Thu 05:16:16 PM 41.5097 -84.5486 50° Northeast 362 417 11,000  Level Cleveland Center
Thu 05:17:16 PM 41.5758 -84.4444 50° Northeast 362 417 11,000  Level Cleveland Center
Thu 05:18:16 PM 41.6419 -84.3400 51° Northeast 362 417 11,000  Level Cleveland Center
Thu 05:18:58 PM 41.6858 -84.2675 50° Northeast 364 419 11,000  Level Cleveland Center
Thu 05:19:53 PM 41.7453 -84.1736 52° Northeast 357 411 11,000  Level Cleveland Center
Thu 05:20:37 PM 41.7850 -84.1061 50° Northeast 321 369 11,000 -72 Level Cleveland Center
Thu 05:21:16 PM 41.8133 -84.0603 57° Northeast 323 372 10,900  Descending Cleveland Center
Thu 05:22:06 PM 41.8533 -83.9761 60° Northeast 278 320 11,000 -650 Climbing Cleveland Center
Thu 05:23:16 PM 41.8981 -83.8725 63° Northeast 270 311 9,600 -1,603 Descending Cleveland Center
Thu 05:24:02 PM 41.9253 -83.8011 59° Northeast 273 314 7,900 -1,829 Descending Cleveland Center
Thu 05:24:38 PM 41.9475 -83.7519 63° Northeast 269 310 7,100 -1,135 Descending Cleveland Center
Thu 05:25:16 PM 41.9697 -83.6944 55° Northeast 258 297 6,500 -980 Descending Cleveland Center
Thu 05:26:16 PM 42.0117 -83.6128 48° Northeast 263 303 5,500 -1,200 Descending Cleveland Center
Thu 05:26:46 PM 42.0356 -83.5775 53° Northeast 252 290 4,700 -1,500 Descending Cleveland Center
Thu 05:27:16 PM 42.0553 -83.5419 50° Northeast 258 297 4,000 -1,133 Descending Cleveland Center
Thu 05:28:16 PM 42.0964 -83.4767 35° Northeast 241 277 3,000 -902 Descending Cleveland Center
Thu 05:29:49 PM 42.1606 -83.4153 26° Northeast 149 171 1,700 -825 Descending Cleveland Center
Thu 05:30:56 PM 42.1967 -83.3917 61° Northeast 138 159 800 -806 Descending Cleveland Center
Thu 05:38:32 PM 42.3917 -82.9150 61° Northeast  Level Estimated

Login

Don't have an account? Register now (free) for customized features, flight alerts, and more!